OBJECT B, 65939

Orbit data source: Space-Track

You're viewing an Uncataloged Satellite

Recently launched and/or uncataloged satellites may have evolving metadata. Metadata may include but not limited to: Owner, Maufacturer, Bus, Motor, and Mission.

OBJECT B, 65939 is a satellite owned by Shikong Daoyu (CN) in SSO that was launched on Sat, 11 Oct 2025 UTC via a YINLI-1 launch vehicle from the Yellow Sea Launch Area, China (YSLA). Unknown objects in Earth's orbit typically refer to objects detected orbiting the Earth but have not yet been identified or cataloged. These objects could be anything from previously untracked satellites, spent rocket stages, debris from satellite collisions, or even natural meteoroids temporarily captured by Earth's gravity.

Loading next visibility...
Identifier
65939, 2025-226B
Orbit
SSO
Country
Flag of CNCN / PRC
Related business
Flag of CNShikong Daoyi Keji YG (CN)
Manufacturer
GWCG
Mission
Operational spacecraft
Bus & Motor
GSP50, Unknown motor
Mass
~50 kg wet, ~50 kg dry
Launch date (UTC)
2025-10-11 (2 months ago)
Launch vehicle
YINLI-1
Launch site
Yellow Sea Launch Area, China (YSLA)
Object type
Unknown
Shape & HBR
Unknown shape, 1.1 m
Radar Cross Section
RCS unknown

Expand to show TLE details & history
Last TLE update: 9 hours ago

TLE from 9 hours ago
0 OBJECT B
1 65939U 25226B   25340.93824124  .00007423  00000-0  46807-3 0  9990
2 65939  97.6597  55.0447 0020946  81.4571 278.9030 15.09236841  8577
Epoch: 2025-12-06T22:31Z
TLE epoch observation values (Epoch: 2025-12-06T22:31:04.043Z)
Latitude
-0.00001°
Longitude
1.31905°
Altitude
539.386 km
Speed
7.594 km/s
True Right ascension
03h 40m 10s
True Declination
0° 00' 00"
Sunlit
Object was in full shadow at epoch
Visualization orbit readout
Latitude
Unknown
Longitude
Unknown
Altitude
Unknown
Speed
Unknown
Apparent Right ascension
Unknown
Apparent Declination
Unknown
Sunlit
N/A
Visualization observer readout
Local Sidereal Time
05:39:38
Azimuth
Unknown
Elevation
Unknown
Doppler factor
Unknown
Orbital elements
Apogee altitude
550.003 km
Perigee altitude
521.04 km
Semi-major axis
6,913.659 km
Eccentricity
0.00209
Inclination
97.6597°
RAAN
55.0447°
Arg. of periapsis
81.4571°
True anomaly
278.66577°
Mean anomaly
278.903°
Eccentric anomaly
278.7844°
Mean motion
3.77556 °/min
Orbital period
95.35 mins
BSTAR
0.00046807
Loading maneuver chart data...
Computing Atmospheric mass density...
Loading historical data...
Loading historical data...
Loading historical data...
Loading historical data...
Loading historical data...
Loading historical data...
Loading historical data...
Other satellites on launch #226 in the year 2025 (2025-10-11 UTC)

Documentation

Showing up to 5 results
|